Weather reports worldwide

Advertisment
Santon Downham, United Kingdom (99118): temperature & dewpoint: 13.06.2018 00:00:00 - 19.06.2018 00:00:00 (BST)Santon Downham, United Kingdom (99118): temperature -20cm & temperature -100cm: 13.06.2018 00:00:00 - 19.06.2018 00:00:00 (BST)Santon Downham, United Kingdom (99118): precipitation: 13.06.2018 00:00:00 - 19.06.2018 00:00:00 (BST)
Date & Time tt [°C] td [°C] tt -20cm [°C] tt -100cm [°C] rr [mm]
19.06.2018 00:00:00 - - - - -
18.06.2018 23:00:00 19,8 15,0 - - 0,0
18.06.2018 22:00:00 20,2 14,9 - - 0,0
18.06.2018 21:00:00 20,6 14,4 - - 0,0
18.06.2018 20:00:00 21,6 14,0 - - 0,0
18.06.2018 19:00:00 23,1 13,4 - - 0,0
18.06.2018 18:00:00 23,9 13,1 - - 0,0
18.06.2018 17:00:00 25,0 12,6 - - 0,0
18.06.2018 16:00:00 24,5 11,1 - - 0,0
18.06.2018 15:00:00 24,0 11,1 - - 0,0
18.06.2018 14:00:00 23,6 10,8 - - 0,0
18.06.2018 13:00:00 21,7 10,8 - - 0,0
18.06.2018 12:00:00 21,0 11,6 - - 0,0
18.06.2018 11:00:00 19,2 12,1 - - 0,0
18.06.2018 10:00:00 17,8 12,4 16,2 14,9 0,0
18.06.2018 09:00:00 16,8 13,0 - - 0,0
18.06.2018 08:00:00 16,1 12,8 - - 0,0
18.06.2018 07:00:00 16,0 13,0 - - 0,0
18.06.2018 06:00:00 15,9 13,7 - - 0,0
18.06.2018 05:00:00 15,9 14,0 - - 0,0
18.06.2018 04:00:00 15,9 14,3 - - 0,0
18.06.2018 03:00:00 16,0 14,1 - - 0,0
18.06.2018 02:00:00 15,7 13,8 - - 0,0
18.06.2018 01:00:00 15,6 13,6 - - 0,0
18.06.2018 00:00:00 16,0 13,1 - - 0,0
17.06.2018 23:00:00 15,9 12,5 - - 0,0
17.06.2018 22:00:00 16,4 12,0 - - 0,0
17.06.2018 21:00:00 16,8 11,8 - - 0,0
17.06.2018 20:00:00 16,9 11,9 - - 0,0
17.06.2018 19:00:00 17,2 11,5 - - 0,0
17.06.2018 18:00:00 17,8 10,7 - - 0,0
17.06.2018 17:00:00 18,5 10,6 - - 0,0
17.06.2018 16:00:00 17,9 10,3 - - 0,0
17.06.2018 15:00:00 18,2 9,6 - - 0,0
17.06.2018 14:00:00 17,9 10,0 - - 0,0
17.06.2018 13:00:00 17,3 10,0 - - 0,0
17.06.2018 12:00:00 17,0 9,7 - - 0,0
17.06.2018 11:00:00 17,5 10,6 - - 0,0
17.06.2018 10:00:00 16,8 9,9 16,2 14,9 0,0
17.06.2018 09:00:00 15,3 11,1 - - 0,0
17.06.2018 08:00:00 14,5 11,0 - - 0,0
17.06.2018 07:00:00 13,0 10,5 - - 0,0
17.06.2018 06:00:00 12,2 10,0 - - 0,0
17.06.2018 05:00:00 11,5 9,7 - - 0,0
17.06.2018 04:00:00 10,3 8,9 - - 0,0
17.06.2018 03:00:00 11,3 9,2 - - 0,0
17.06.2018 02:00:00 11,8 9,0 - - 0,0
17.06.2018 01:00:00 13,4 9,2 - - 0,0
17.06.2018 00:00:00 14,7 9,6 - - 0,0
16.06.2018 23:00:00 15,3 9,7 - - 0,0
16.06.2018 22:00:00 16,9 11,9 - - 0,0
16.06.2018 21:00:00 17,0 11,8 - - 0,0
16.06.2018 20:00:00 18,3 11,7 - - 0,0
16.06.2018 19:00:00 19,3 11,4 - - 0,0
16.06.2018 18:00:00 19,5 10,5 - - 0,0
16.06.2018 17:00:00 19,6 10,0 - - 0,0
16.06.2018 16:00:00 19,8 9,7 - - 0,0
16.06.2018 15:00:00 19,5 8,5 - - 0,0
16.06.2018 14:00:00 19,5 9,1 - - 0,0
16.06.2018 13:00:00 19,4 8,5 - - 0,0
16.06.2018 12:00:00 19,1 10,3 - - 0,0
16.06.2018 11:00:00 16,2 9,3 - - 0,0
16.06.2018 10:00:00 15,1 10,0 16,2 14,7 0,0
16.06.2018 09:00:00 14,8 11,0 - - 0,0
16.06.2018 08:00:00 13,1 11,4 - - 0,2
16.06.2018 07:00:00 12,6 11,0 - - 0,0
16.06.2018 06:00:00 10,6 10,0 - - 0,0
16.06.2018 05:00:00 10,2 9,6 - - 0,0
16.06.2018 04:00:00 9,9 9,3 - - 0,0
16.06.2018 03:00:00 9,7 9,0 - - 0,0
16.06.2018 02:00:00 9,3 8,5 - - 0,0
16.06.2018 01:00:00 9,1 8,2 - - 0,0
16.06.2018 00:00:00 9,7 8,2 - - 0,0
15.06.2018 23:00:00 11,0 8,7 - - 0,0
15.06.2018 22:00:00 13,6 9,3 - - 0,0
15.06.2018 21:00:00 16,8 8,9 - - 0,0
15.06.2018 20:00:00 18,5 8,8 - - 0,0
15.06.2018 19:00:00 19,9 8,6 - - 0,0
15.06.2018 18:00:00 20,8 8,6 - - 0,0
15.06.2018 17:00:00 20,7 8,4 - - 0,0
15.06.2018 16:00:00 21,2 7,9 - - 0,0
15.06.2018 15:00:00 21,3 7,5 - - 0,0
15.06.2018 14:00:00 21,2 8,5 - - 0,0
15.06.2018 13:00:00 21,1 6,3 - - 0,0
15.06.2018 12:00:00 21,1 6,7 - - 0,0
15.06.2018 11:00:00 19,7 8,3 - - 0,0
15.06.2018 10:00:00 18,8 9,6 16,2 14,7 0,0
15.06.2018 09:00:00 16,4 9,4 - - 0,0
15.06.2018 08:00:00 13,9 10,8 - - 0,0
15.06.2018 07:00:00 8,2 8,2 - - 0,0
15.06.2018 06:00:00 6,6 6,5 - - 0,0
15.06.2018 05:00:00 6,1 5,8 - - 0,0
15.06.2018 04:00:00 7,3 6,9 - - 0,0
15.06.2018 03:00:00 7,7 7,4 - - 0,0
15.06.2018 02:00:00 7,1 6,6 - - 0,0
15.06.2018 01:00:00 7,9 6,9 - - 0,0
15.06.2018 00:00:00 8,8 7,4 - - 0,0
14.06.2018 23:00:00 9,5 7,7 - - 0,0
14.06.2018 22:00:00 12,0 9,0 - - 0,0
14.06.2018 21:00:00 15,9 9,9 - - 0,0
14.06.2018 20:00:00 19,2 8,3 - - 0,0
14.06.2018 19:00:00 20,7 8,3 - - 0,0
14.06.2018 18:00:00 20,9 8,0 - - 0,0
14.06.2018 17:00:00 21,9 8,2 - - 0,0
14.06.2018 16:00:00 21,2 7,5 - - 0,0
14.06.2018 15:00:00 22,3 10,5 - - 0,0
14.06.2018 14:00:00 21,4 11,8 - - 0,0
14.06.2018 13:00:00 19,9 13,0 - - 0,0
14.06.2018 12:00:00 18,3 13,4 - - 0,0
14.06.2018 11:00:00 18,0 13,4 - - 0,0
14.06.2018 10:00:00 17,8 12,4 16,2 14,7 0,0
14.06.2018 09:00:00 16,8 11,7 - - 0,0
14.06.2018 08:00:00 16,1 11,2 - - 0,0
14.06.2018 07:00:00 15,1 11,2 - - 0,0
14.06.2018 06:00:00 14,7 11,3 - - 0,0
14.06.2018 05:00:00 14,6 11,4 - - 0,0
14.06.2018 04:00:00 14,7 11,5 - - 0,0
14.06.2018 03:00:00 14,7 11,4 - - 0,0
14.06.2018 02:00:00 15,2 10,9 - - 0,0
14.06.2018 01:00:00 15,5 9,8 - - 0,0
14.06.2018 00:00:00 16,2 9,1 - - 0,0
13.06.2018 23:00:00 17,0 9,2 - - 0,0
13.06.2018 22:00:00 18,1 10,1 - - 0,0
13.06.2018 21:00:00 19,2 10,8 - - 0,0
13.06.2018 20:00:00 20,4 10,6 - - 0,0
13.06.2018 19:00:00 21,0 10,2 - - 0,0
13.06.2018 18:00:00 21,3 10,1 - - 0,0
13.06.2018 17:00:00 21,8 10,2 - - 0,0
13.06.2018 16:00:00 21,6 9,6 - - 0,0
13.06.2018 15:00:00 21,6 9,9 - - 0,0
13.06.2018 14:00:00 20,4 10,2 - - 0,0
13.06.2018 13:00:00 20,6 10,1 - - 0,0
13.06.2018 12:00:00 20,5 9,7 - - 0,0
13.06.2018 11:00:00 18,9 7,3 - - 0,0
13.06.2018 10:00:00 16,9 8,5 16,0 14,7 0,0
13.06.2018 09:00:00 14,2 9,8 - - 0,0
13.06.2018 08:00:00 10,9 10,9 - - 0,0
13.06.2018 07:00:00 9,2 9,2 - - 0,0
13.06.2018 06:00:00 6,8 6,8 - - 0,0
13.06.2018 05:00:00 4,9 4,9 - - 0,0
13.06.2018 04:00:00 4,6 4,5 - - 0,0
13.06.2018 03:00:00 3,9 3,7 - - 0,0
13.06.2018 02:00:00 4,5 4,2 - - 0,0
13.06.2018 01:00:00 5,2 4,9 - - 0,0
13.06.2018 00:00:00 6,0 5,6 - - 0,0

tt = temperature
td = dewpoint
tt -20cm = temperature -20cm
tt -100cm = temperature -100cm
rr = precipitation

Next stations